Location: Peebles
(55.6412°N, 3.1714°W)
Time: 10:17:34
(UTC+01:00)

NOSS 3-3 (A) - Pass Details

Date: 03 February 2022
Orbit: 789 x 1423 km, 63.4° (Epoch: 23 April)

Event Time Altitude Azimuth Distance (km) Brightness Sun altitude
Rises 06:19:39 0° 214° (SW) 3,392 6.6 -14.5°
Reaches altitude 10° 06:21:59 10° 212° (SSW) 2,516 5.9 -14.2°
Maximum altitude 06:27:44 64° 132° (SE) 1,057 4.4 -13.4°
Drops below altitude 10° 06:34:26 10° 53° (NE) 2,923 7.1 -12.5°
Sets 06:37:20 0° 51° (NE) 3,984 7.8 -12.1°
